This is the latest recevied weather packets stored in our database for station/object KU9TRY. If no packets are shown the sender has not sent any weather packets the latest 10 day(s).
| Time | Temp. | Humidity | Pressure | Rain* | Wind** | Luminosity | Snow |
|---|---|---|---|---|---|---|---|
| 1788005928 | 17.78° C | 98% | 1020.7 hPa | 0 mm | - | 56 W/m² | - |
| 1788005623 | 17.78° C | 98% | 1020.8 hPa | 0 mm | - | 56 W/m² | - |
| 1788005323 | 17.78° C | 99% | 1020.7 hPa | 0 mm | - | 64 W/m² | - |
| 1788005022 | 17.22° C | 99% | 1020.6 hPa | 0 mm | - | 51 W/m² | - |
| 1788004720 | 17.22° C | 99% | 1020.6 hPa | 0 mm | - | 42 W/m² | - |
| 1788004415 | 17.22° C | 99% | 1020.4 hPa | 0 mm | - | 35 W/m² | - |
| 1788004110 | 17.22° C | 99% | 1020.4 hPa | 0 mm | - | 27 W/m² | - |
| 1788003808 | 16.67° C | 99% | 1020.4 hPa | 0 mm | - | 21 W/m² | - |
| 1788003504 | 16.67° C | 99% | 1020.4 hPa | 0 mm | - | 17 W/m² | - |
| 1788003204 | 16.67° C | 99% | 1020.4 hPa | 0 mm | - | 14 W/m² | - |
| 1788002903 | 16.67° C | 98% | 1020.2 hPa | 0 mm | - | 10 W/m² | - |
| 1788002599 | 16.67° C | 98% | 1020.3 hPa | 0 mm | - | 7 W/m² | - |
| 1788002294 | 16.67° C | 99% | 1020.2 hPa | 0 mm | - | 5 W/m² | - |
| 1788001994 | 16.67° C | 99% | 1020.2 hPa | 0 mm | - | 3 W/m² | - |
| 1788001694 | 16.67° C | 99% | 1020.2 hPa | 0 mm | - | 2 W/m² | - |
| 1788001389 | 16.67° C | 98% | 1020.3 hPa | 0 mm | - | 1 W/m² | - |
| 1788001084 | 16.67° C | 99% | 1020.1 hPa | 0 mm | - | 0 W/m² | - |
| 1788000780 | 17.22° C | 99% | 1020 hPa | 0 mm | - | 0 W/m² | - |
| 1788000475 | 17.22° C | 99% | 1019.8 hPa | 0 mm | - | 0 W/m² | - |
| 1788000175 | 17.22° C | 99% | 1020 hPa | 0 mm | - | 0 W/m² | - |
| 1787999871 | 17.22° C | 99% | 1019.9 hPa | 0 mm | - | 0 W/m² | - |
| 1787999568 | 17.22° C | 98% | 1019.8 hPa | 0 mm | - | 0 W/m² | - |
| 1787999264 | 17.22° C | 98% | 1019.9 hPa | 0 mm | - | 0 W/m² | - |
| 1787998958 | 17.22° C | 98% | 1020 hPa | 0 mm | - | 0 W/m² | - |
| 1787998657 | 17.22° C | 98% | 1019.8 hPa | 0 mm | - | 0 W/m² | - |
* Rain latest hour (hover to see other rain measurements)
** Current wind speed in m/s (hover to see current wind gust speed)